GW0571 Weather Reports


time (UTC)temp
F
wind
direction
speed
knots
gust
knots
rain 1hr
in
rain 24hr
in
rain mn
in
humidity
%
barometer
mb
20260505064114 60 159 1.7 5.2 0.00 0.00 0.00 57 1007.0
20260505063611 60 148 1.7 7.8 0.00 0.00 0.00 57 1007.0
20260505063106 60 141 1.7 2.6 0.00 0.00 0.00 58 1007.2
20260505062603 60 127 2.6 4.3 0.00 0.00 0.00 57 1007.1
20260505062101 60 110 0.0 7.0 0.00 0.00 0.00 57 1007.0
20260505061558 60 170 1.7 8.7 0.00 0.00 0.00 55 1006.9
20260505061056 60 140 1.7 6.1 0.00 0.00 0.00 56 1006.9
20260505060553 60 135 0.9 6.1 0.00 0.00 0.00 57 1007.0
20260505060050 60 101 1.7 11.3 0.00 0.00 0.00 55 1006.7
20260505055545 60 125 1.7 7.0 0.00 0.00 0.00 55 1007.0
20260505055042 60 176 1.7 4.3 0.00 0.00 0.00 56 1007.0
20260505054539 60 155 0.9 7.0 0.00 0.00 0.00 55 1006.9
20260505054037 60 151 4.3 7.8 0.00 0.00 0.00 55 1007.0
20260505053534 60 128 2.6 6.1 0.00 0.00 0.00 56 1007.0
20260505053031 60 132 3.5 4.3 0.00 0.00 0.00 55 1007.1
20260505052528 60 130 1.7 3.5 0.00 0.00 0.00 55 1007.0
20260505052025 60 119 1.7 4.3 0.00 0.00 0.00 55 1007.0
20260505051522 60 135 2.6 5.2 0.00 0.00 0.00 54 1007.0
20260505051020 60 170 1.7 7.0 0.00 0.00 0.00 54 1007.3
20260505050518 60 253 0.9 4.3 0.00 0.00 0.00 54 1007.2
20260505041445 60 148 1.7 4.3 0.00 0.00 0.00 54 1007.2
20260505040943 61 125 2.6 4.3 0.00 0.00 0.00 53 1006.9
20260505040440 61 155 1.7 6.1 0.00 0.00 0.00 52 1006.9
20260505035937 61 118 0.9 7.0 0.00 0.00 0.00 52 1007.0
20260505035433 61 110 1.7 9.6 0.00 0.00 0.00 52 1007.0
20260505034930 61 129 4.3 7.0 0.00 0.00 0.00 52 1006.9
20260505034426 61 125 1.7 3.5 0.00 0.00 0.00 52 1007.0
20260505033924 61 212 2.6 7.8 0.00 0.00 0.00 51 1006.9
20260505033420 61 356 3.5 6.1 0.00 0.00 0.00 52 1006.7
20260505032919 61 164 3.5 4.3 0.00 0.00 0.00 52 1006.9
20260505032415 61 246 5.2 7.8 0.00 0.00 0.00 51 1006.9
20260505031912 61 218 1.7 6.1 0.00 0.00 0.00 52 1006.7
20260505031409 61 210 0.9 5.2 0.00 0.00 0.00 52 1006.6
20260505030906 61 175 0.9 4.3 0.00 0.00 0.00 51 1006.6
20260505030402 62 133 0.9 10.4 0.00 0.00 0.00 51 1006.7
20260505025857 62 206 4.3 9.6 0.00 0.00 0.00 50 1006.7
20260505025355 62 206 2.6 10.4 0.00 0.00 0.00 50 1007.0
20260505024854 62 148 2.6 4.3 0.00 0.00 0.00 50 1006.9
20260505024351 62 225 5.2 7.8 0.00 0.00 0.00 49 1007.0
20260505023847 62 180 2.6 9.6 0.00 0.00 0.00 48 1006.9
20260505023339 62 178 2.6 6.1 0.00 0.00 0.00 49 1007.0
20260505022836 62 257 2.6 4.3 0.00 0.00 0.00 48 1007.1
20260505022333 62 169 2.6 5.2 0.00 0.00 0.00 47 1007.3
20260505021831 62 327 0.9 11.3 0.00 0.00 0.00 47 1007.2
20260505021327 63 149 0.0 7.8 0.00 0.00 0.00 48 1007.1
20260505020823 62 161 1.7 6.1 0.00 0.00 0.00 47 1007.0
20260505020318 62 58 0.9 7.0 0.00 0.00 0.00 48 1007.1
20260505015815 63 80 1.7 6.1 0.00 0.00 0.00 47 1007.2
20260505015313 63 257 0.0 5.2 0.00 0.00 0.00 47 1007.0
20260505014810 62 40 1.7 5.2 0.00 0.00 0.00 48 1007.1
20260505014307 62 153 0.9 4.3 0.00 0.00 0.00 48 1007.0
20260505013803 63 177 2.6 7.0 0.00 0.00 0.00 47 1007.0
20260505013301 62 181 0.9 3.5 0.00 0.00 0.00 47 1006.9
20260505012759 63 132 0.9 4.3 0.00 0.00 0.00 47 1006.6
20260505012256 63 305 0.9 7.0 0.00 0.00 0.00 46 1006.7
20260505011752 63 199 0.9 6.1 0.00 0.00 0.00 46 1006.7
20260505011249 63 124 2.6 4.3 0.00 0.00 0.00 45 1006.9
20260505010744 64 138 2.6 6.1 0.00 0.00 0.00 45 1006.6
20260505010241 63 76 1.7 5.2 0.00 0.00 0.00 45 1006.6
20260505005737 64 182 1.7 7.8 0.00 0.00 0.00 45 1006.5
20260505005234 64 134 0.9 4.3 0.00 0.00 0.00 46 1006.5
20260505004732 64 146 7.0 9.6 0.00 0.00 0.00 44 1006.3
20260505004228 64 139 0.9 7.0 0.00 0.00 0.00 45 1006.3
20260505003725 64 142 2.6 10.4 0.00 0.00 0.00 45 1006.4
20260505003223 65 138 3.5 10.4 0.00 0.00 0.00 44 1006.5
20260505002719 64 179 0.9 5.2 0.00 0.00 0.00 46 1006.4
20260505002217 64 134 0.9 1.7 0.00 0.00 0.00 45 1006.2
20260505001714 64 187 2.6 7.8 0.00 0.00 0.00 44 1006.3
20260505001212 65 225 1.7 4.3 0.00 0.00 0.00 43 1006.1
20260505000708 64 123 0.9 4.3 0.00 0.00 0.00 44 1006.3
20260505000206 65 156 1.7 3.5 0.00 0.00 0.00 43 1006.2
20260504235702 65 138 0.9 7.0 0.00 0.00 0.00 43 1006.1
20260504235158 66 140 2.6 5.2 0.00 0.00 0.00 42 1006.1
20260504234656 66 174 2.6 6.1 0.00 0.00 0.00 42 1006.1
20260504234153 66 138 2.6 6.1 0.00 0.00 0.00 40 1006.1
20260504233649 67 84 1.7 4.3 0.00 0.00 0.00 40 1006.0
20260504233145 67 194 2.6 7.8 0.00 0.00 0.00 39 1005.8
20260504232643 67 134 2.6 7.0 0.00 0.00 0.00 40 1005.9
20260504232140 68 138 2.6 9.6 0.00 0.00 0.00 38 1005.7
20260504231636 68 101 2.6 4.3 0.00 0.00 0.00 38 1005.9
20260504231133 69 142 1.7 7.8 0.00 0.00 0.00 38 1005.8
20260504230629 69 212 2.6 9.6 0.00 0.00 0.00 38 1005.7
20260504230128 69 141 4.3 6.1 0.00 0.00 0.00 36 1005.6
20260504225626 69 131 1.7 5.2 0.00 0.00 0.00 36 1005.7
20260504225121 69 315 1.7 6.1 0.00 0.00 0.00 35 1005.9
20260504224618 69 182 2.6 7.8 0.00 0.00 0.00 36 1005.6
20260504224115 69 234 2.6 8.7 0.00 0.00 0.00 36 1005.8
20260504223612 70 257 1.7 9.6 0.00 0.00 0.00 37 1005.8
20260504223108 71 152 0.9 6.1 0.00 0.00 0.00 38 1005.7
20260504222605 71 165 2.6 3.5 0.00 0.00 0.00 34 1005.9
20260504222102 72 180 3.5 5.2 0.00 0.00 0.00 32 1005.8
20260504221559 71 202 2.6 6.1 0.00 0.00 0.00 31 1005.5
20260504221056 72 221 2.6 10.4 0.00 0.00 0.00 29 1005.8
20260504220553 71 249 2.6 11.3 0.00 0.00 0.00 29 1005.7
20260504220050 71 234 6.1 8.7 0.00 0.00 0.00 30 1005.6
20260504215546 72 132 6.1 11.3 0.00 0.00 0.00 31 1005.5
20260504215044 72 219 5.2 9.6 0.00 0.00 0.00 29 1005.7
20260504214539 72 206 9.6 9.6 0.00 0.00 0.00 30 1005.8
20260504214036 72 189 7.0 10.4 0.00 0.00 0.00 31 1005.9
20260504213532 71 233 6.1 13.0 0.00 0.00 0.00 31 1005.8
20260504213030 71 211 7.8 7.8 0.00 0.00 0.00 32 1005.7
20260504212525 71 249 5.2 8.7 0.00 0.00 0.00 31 1005.6
20260504212023 71 157 1.7 11.3 0.00 0.00 0.00 33 1005.9
20260504211520 71 125 3.5 10.4 0.00 0.00 0.00 34 1005.9
20260504211017 71 237 5.2 12.2 0.00 0.00 0.00 31 1006.3
20260504210514 71 251 7.0 7.8 0.00 0.00 0.00 32 1006.0
20260504210011 70 196 4.3 13.9 0.00 0.00 0.00 32 1005.9
20260504205509 71 163 5.2 10.4 0.00 0.00 0.00 32 1006.1
20260504205006 72 273 3.5 7.0 0.00 0.00 0.00 32 1006.0
20260504204504 69 216 5.2 10.4 0.00 0.00 0.00 33 1006.2
20260504204003 70 94 2.6 7.8 0.00 0.00 0.00 32 1006.1
20260504203501 70 161 4.3 11.3 0.00 0.00 0.00 33 1006.4
20260504202956 71 247 2.6 8.7 0.00 0.00 0.00 33 1006.2
20260504202453 69 247 5.2 13.0 0.00 0.00 0.00 35 1006.6
20260504201950 68 259 2.6 10.4 0.00 0.00 0.00 37 1006.6
20260504201447 68 160 6.1 16.5 0.00 0.00 0.00 35 1006.5
20260504200945 70 191 1.7 10.4 0.00 0.00 0.00 35 1006.5
20260504200441 70 250 2.6 9.6 0.00 0.00 0.00 36 1006.5
20260504195938 68 229 4.3 8.7 0.00 0.00 0.00 36 1006.9
20260504195434 69 234 4.3 13.9 0.00 0.00 0.00 35 1006.9
20260504194931 70 162 4.3 9.6 0.00 0.00 0.00 34 1006.9
20260504194427 69 219 8.7 16.5 0.00 0.00 0.00 34 1007.0
20260504193923 70 227 3.5 6.1 0.00 0.00 0.00 37 1007.1
20260504193420 71 191 7.8 8.7 0.00 0.00 0.00 33 1007.1
20260504192919 70 171 3.5 9.6 0.00 0.00 0.00 36 1007.2
20260504192415 70 226 6.1 11.3 0.00 0.00 0.00 39 1007.3
20260504191915 69 184 3.5 10.4 0.00 0.00 0.00 35 1007.3
20260504191412 69 213 3.5 7.8 0.00 0.00 0.00 37 1007.2
20260504190907 69 207 2.6 8.7 0.00 0.00 0.00 36 1007.3
20260504190403 70 205 2.6 12.2 0.00 0.00 0.00 39 1007.2
20260504185900 68 251 4.3 9.6 0.00 0.00 0.00 37 1007.3
20260504185357 69 189 2.6 12.2 0.00 0.00 0.00 36 1007.4
20260504184853 68 236 9.6 18.2 0.00 0.00 0.00 37 1007.5
20260504184349 69 99 2.6 8.7 0.00 0.00 0.00 36 1007.3
20260504183845 68 254 15.6 18.2 0.00 0.00 0.00 36 1007.5
20260504183343 68 240 9.6 16.5 0.00 0.00 0.00 36 1007.6
20260504182840 69 188 3.5 15.6 0.00 0.00 0.00 38 1007.8
20260504182337 69 258 12.2 12.2 0.00 0.00 0.00 36 1007.5
20260504181834 68 231 10.4 19.1 0.00 0.00 0.00 37 1007.6
20260504181331 68 210 4.3 11.3 0.00 0.00 0.00 38 1007.5
20260504180830 68 173 9.6 16.5 0.00 0.00 0.00 38 1007.7
20260504180328 67 248 10.4 13.0 0.00 0.00 0.00 38 1007.8
20260504175826 66 255 3.5 17.4 0.00 0.00 0.00 40 1007.9
20260504175323 68 246 1.7 11.3 0.00 0.00 0.00 39 1007.8
20260504174821 68 223 6.1 13.0 0.00 0.00 0.00 37 1007.9
20260504174318 68 163 5.2 16.5 0.00 0.00 0.00 37 1008.1
20260504173815 68 267 5.2 10.4 0.00 0.00 0.00 37 1007.9
20260504173311 67 137 4.3 10.4 0.00 0.00 0.00 41 1007.7
20260504172809 66 138 5.2 12.2 0.00 0.00 0.00 40 1007.9
20260504172305 66 227 3.5 20.0 0.00 0.00 0.00 41 1007.9
20260504171801 67 207 7.0 15.6 0.00 0.00 0.00 39 1008.0
20260504171258 66 223 3.5 14.8 0.00 0.00 0.00 40 1008.0
20260504170755 66 248 4.3 10.4 0.00 0.00 0.00 40 1007.9
20260504170252 66 236 6.1 13.0 0.00 0.00 0.00 39 1008.2
20260504160211 64 241 10.4 10.4 0.00 0.00 0.00 41 1008.9
20260504151139 61 197 4.3 13.9 0.00 0.00 0.00 42 1009.3
20260504150636 61 232 8.7 8.7 0.00 0.00 0.00 42 1009.2
20260504150133 59 208 2.6 14.8 0.00 0.00 0.00 43 1009.3
20260504141102 57 184 2.6 13.0 0.00 0.00 0.00 47 1009.8
20260504140558 57 95 3.5 10.4 0.00 0.00 0.00 46 1010.0
20260504130522 51 155 4.3 7.8 0.00 0.00 0.00 52 1010.4
20260504110410 44 114 0.9 4.3 0.00 0.00 0.00 65 1010.6
20260504100326 42 144 1.7 4.3 0.00 0.00 0.00 66 1010.5
20260504081720 41 115 0.9 1.7 0.00 0.00 0.00 68 1010.7
20260504081216 42 130 1.7 2.6 0.00 0.00 0.00 67 1010.6
20260504080712 42 119 1.7 1.7 0.00 0.00 0.00 67 1010.7
20260504080209 41 135 1.7 4.3 0.00 0.00 0.00 68 1010.7
20260504070137 43 143 3.5 5.2 0.00 0.00 0.00 62 1010.8